FW1206 Weather Reports


time (UTC)temp
C
wind
direction
speed
KPH
gust
KPH
rain 1hr
cm
rain 24hr
cm
rain mn
cm
humidity
%
barometer
mb
20260506111509 9 205 0.0 0.0 0.00 0.00 0.00 91 1017.8
20260506110009 9 210 0.0 0.0 0.00 0.00 0.00 91 1017.7
20260506104504 9 210 0.0 0.0 0.00 0.00 0.00 91 1017.4
20260506103008 10 210 0.0 1.6 0.00 0.00 0.00 90 1017.2
20260506101600 10 220 0.0 0.0 0.00 0.00 0.00 90 1017.1
20260506100112 10 203 0.0 1.6 0.00 0.00 0.00 89 1016.9
20260506094602 10 220 0.0 3.2 0.00 0.00 0.00 89 1016.8
20260506093053 10 252 0.0 3.2 0.00 0.00 0.00 88 1016.7
20260506091552 10 202 0.0 3.2 0.00 0.00 0.00 88 1016.6
20260506090051 10 214 0.0 4.8 0.00 0.00 0.00 88 1016.5
20260506084616 10 195 0.0 0.0 0.00 0.00 0.00 88 1016.5
20260506083046 10 194 0.0 0.0 0.00 0.00 0.00 88 1016.5
20260506081553 11 194 0.0 0.0 0.00 0.00 0.00 87 1016.5
20260506073037 11 267 0.0 0.0 0.00 0.00 0.00 86 1016.3
20260506071535 11 272 0.0 0.0 0.00 0.00 0.00 85 1016.2
20260506061531 12 237 0.0 1.6 0.00 0.00 0.00 84 1015.7
20260506044535 13 175 0.0 6.4 0.00 0.00 0.00 77 1015.2
20260506043027 14 221 0.0 4.8 0.00 0.00 0.00 77 1015.0
20260506041528 14 197 1.6 9.7 0.00 0.00 0.00 76 1014.8
20260506040032 15 150 0.0 9.7 0.00 0.00 0.00 76 1014.7
20260506034526 15 231 1.6 12.9 0.00 0.00 0.00 74 1014.5
20260506033025 15 202 0.0 9.7 0.00 0.00 0.00 73 1014.4
20260506031527 16 224 1.6 14.5 0.00 0.00 0.00 72 1014.3
20260506030027 16 223 3.2 11.3 0.00 0.00 0.00 70 1014.2
20260506024523 17 171 1.6 12.9 0.00 0.00 0.00 68 1014.1
20260506023038 18 207 3.2 11.3 0.00 0.00 0.00 67 1014.2
20260506021533 18 176 1.6 11.3 0.00 0.00 0.00 66 1014.3
20260506020026 18 211 1.6 11.3 0.00 0.00 0.00 66 1014.2
20260506014521 18 198 3.2 19.3 0.00 0.00 0.00 66 1014.3
20260506013029 19 228 1.6 12.9 0.00 0.00 0.00 65 1014.4
20260506011520 20 149 1.6 11.3 0.00 0.00 0.00 64 1014.4
20260506010019 20 214 1.6 11.3 0.00 0.00 0.00 63 1014.5
20260506004525 20 172 1.6 9.7 0.00 0.00 0.00 62 1014.5
20260506003018 20 157 1.6 14.5 0.00 0.00 0.00 61 1014.7
20260506001516 20 208 1.6 12.9 0.00 0.00 0.00 63 1014.8
20260506000015 20 96 4.8 22.5 0.00 0.00 0.00 62 1015.1
20260505234516 20 177 6.4 17.7 0.00 0.00 0.00 63 1015.1
20260505233012 20 120 1.6 14.5 0.00 0.00 0.00 66 1015.3
20260505231527 19 219 1.6 11.3 0.00 0.00 0.00 65 1015.5
20260505230021 19 232 4.8 14.5 0.00 0.00 0.00 65 1015.8
20260505224513 19 178 3.2 12.9 0.00 0.00 0.00 66 1015.8
20260505223008 19 110 1.6 14.5 0.00 0.00 0.00 67 1016.0
20260505221508 19 205 4.8 17.7 0.00 0.00 0.00 66 1016.2
20260505220005 18 200 0.0 12.9 0.00 0.00 0.00 68 1016.2
20260505214503 18 158 6.4 12.9 0.00 0.00 0.00 69 1016.2
20260505213002 17 141 4.8 14.5 0.00 0.00 0.00 70 1016.4
20260505211559 17 189 0.0 12.9 0.00 0.00 0.00 73 1016.5
20260505210058 16 136 3.2 14.5 0.00 0.00 0.00 73 1016.6
20260505204554 16 103 4.8 12.9 0.00 0.00 0.00 74 1016.7
20260505203114 16 212 3.2 14.5 0.00 0.00 0.00 74 1016.6
20260505201559 15 159 3.2 12.9 0.00 0.00 0.00 77 1016.8
20260505200054 15 162 3.2 17.7 0.00 0.00 0.00 78 1016.7
20260505194549 15 137 3.2 16.1 0.00 0.00 0.00 77 1016.7
20260505193046 15 138 6.4 14.5 0.00 0.00 0.00 76 1016.7
20260505191554 15 159 4.8 17.7 0.00 0.00 0.00 77 1016.8
20260505190046 15 205 4.8 12.9 0.00 0.00 0.00 76 1016.7
20260505184543 15 192 4.8 17.7 0.00 0.00 0.00 78 1016.6
20260505183043 15 102 1.6 17.7 0.00 0.00 0.00 78 1016.3
20260505181544 14 139 4.8 24.1 0.00 0.00 0.00 79 1016.5
20260505180040 15 105 1.6 14.5 0.00 0.00 0.00 79 1016.5
20260505174542 14 148 3.2 16.1 0.00 0.00 0.00 78 1016.5
20260505173040 14 112 1.6 16.1 0.00 0.00 0.00 79 1016.5
20260505171540 14 137 3.2 12.9 0.00 0.00 0.00 79 1016.3
20260505170048 13 209 4.8 17.7 0.00 0.00 0.00 80 1016.3
20260505164536 14 143 0.0 16.1 0.00 0.00 0.00 79 1016.3
20260505163035 14 139 1.6 11.3 0.00 0.00 0.00 78 1016.1
20260505161532 13 201 1.6 12.9 0.00 0.00 0.00 79 1016.1
20260505153027 13 176 1.6 11.3 0.00 0.00 0.00 81 1015.6
20260505151525 13 160 1.6 9.7 0.00 0.00 0.00 82 1015.4
20260505124508 11 201 0.0 6.4 0.00 0.00 0.00 87 1013.9
20260505123004 11 200 0.0 4.8 0.00 0.00 0.00 88 1013.8
20260505121507 10 213 0.0 4.8 0.00 0.00 0.00 88 1013.7
20260505120100 10 217 0.0 1.6 0.00 0.00 0.00 89 1013.5
20260505114559 10 192 0.0 1.6 0.00 0.00 0.00 89 1013.3
20260505113056 10 196 0.0 0.0 0.00 0.00 0.00 88 1013.2